Temp
73 74 73 74 76 72 70 71 67 59 59 59 60 62 62 64 68 71 69 69 70 69 69 70 68 67 65 63 63 63 62 62 63 60 62 64 65 63 64 65 64 63 63
72 71 72 72 70 72 72 68 68 65 67 69 71 74 72 72 72 71 69 69 68 69 68 67 67 66 65 63 62 61 60 62 62 55 56 54 59 64 62 62 62 61 62
72 70 71 72 69 69 70 71 73 73 74 74 73 72 70 69 70 69 70 69 68 69 68 67 66 64 64 63 61 61 58 56 60 58 54 49 49 53 59 58 60 58 58
71 72 72 71 72 72 74 77 76 76 74 73 73 71 74 71 72 70 70 71 67 68 67 66 64 63 63 62 62 62 58 57 54 57 58 56 53 47 46 54 55 57 56
71 71 73 74 75 73 74 75 74 74 73 72 73 72 70 70 70 69 67 68 69 66 66 65 64 63 63 62 60 58 57 57 53 53 53 51 50 49 44 41 49 55 56
70 72 74 74 73 73 72 71 72 72 72 72 70 69 67 67 68 69 67 68 67 67 66 65 63 62 61 60 59 58 54 54 53 51 50 48 46 46 44 41 45 48 52
70 71 71 71 70 70 70 71 72 70 70 70 70 69 67 67 66 65 65 63 64 64 63 62 61 61 60 59 58 56 54 53 52 50 49 50 48 48 45 43 45 45 50
71 71 71 71 71 70 71 71 72 70 69 68 67 67 66 69 68 65 64 63 62 62 61 60 60 60 59 59 57 56 55 54 52 49 48 48 48 49 48 46 42 40 44
71 71 71 71 71 70 69 69 70 69 65 62 63 62 66 64 63 62 62 62 61 61 60 59 59 59 58 58 57 54 53 54 53 49 48 48 49 49 48 47 45 38 34
71 70 70 69 69 70 67 67 67 65 59 60 63 65 64 63 62 62 60 59 59 59 58 57 57 56 56 56 55 53 51 52 51 49 48 48 49 47 48 48 46 45 42
70 69 69 68 68 68 68 66 63 60 59 61 61 62 62 62 62 61 59 58 58 57 56 55 54 54 54 53 48 45 46 49 48 47 47 47 48 48 48 47 47 45 45
70 69 67 66 66 66 66 63 60 59 59 61 61 61 62 61 60 59 58 57 55 55 54 53 53 53 49 49 50 48 47 46 45 47 47 47 48 46 47 46 45 44 43
66 66 65 65 65 64 62 58 57 58 63 63 63 62 60 60 58 56 56 55 54 53 53 52 48 47 47 47 46 46 47 47 47 47 45 45 45 43 44 44 43 41 40
63 64 64 65 64 62 58 59 59 61 62 62 62 60 58 57 57 55 54 53 52 51 51 51 48 46 48 48 48 47 47 47 46 45 44 43 42 41 40 40 40 39 38
62 63 63 63 63 61 62 62 61 61 61 60 59 58 57 55 54 53 52 52 50 51 51 48 47 48 48 48 45 46 46 45 44 44 43 43 39 35 35 36 36 35 34
62 62 63 63 62 61 61 60 60 59 59 58 56 56 53 53 52 51 50 50 50 50 49 48 47 46 48 35 36 36 43 44 42 42 42 42 39 38 34 34 33 34 33
61 61 62 61 61 60 60 59 59 58 57 56 54 53 52 51 51 51 50 50 49 49 46 46 47 45 45 35 34 34 42 42 41 40 40 40 40 37 36 34 33 33 34
62 62 62 60 61 60 60 59 59 57 55 53 52 52 51 50 50 50 49 49 48 47 45 43 45 45 44 34 33 33 41 41 40 40 39 39 38 37 33 33 32 33 36
63 63 63 60 59 58 58 58 56 55 52 51 51 51 51 50 49 48 47 47 47 47 44 44 44 43 43 33 33 33 39 38 38 39 39 37 36 33 31 30 29 31 34
64 60 58 58 55 58 56 54 53 51 50 50 51 51 50 49 48 47 46 47 47 45 42 43 44 40 40 33 32 33 37 33 36 38 38 34 32 29 30 29 29 27 30
60 57 53 53 56 54 54 52 51 49 50 50 50 50 50 48 47 47 47 47 46 44 42 39 41 41 40 39 31 31 33 34 34 34 35 36 30 29 29 28 29 28 30
54 55 53 51 51 52 51 51 49 51 50 49 48 48 48 47 46 46 46 45 44 42 39 34 36 39 39 35 34 31 31 31 31 32 34 33 29 28 27 28 26 27 27
54 54 52 48 50 50 50 47 50 48 47 46 46 47 46 46 46 46 44 43 43 40 38 36 36 37 38 37 32 31 30 30 31 33 31 27 27 27 29 28 26 27 29
49 48 48 48 46 47 46 48 47 47 45 44 45 45 45 45 46 45 42 42 40 37 35 34 34 36 35 36 36 35 34 32 32 33 32 29 25 28 28 31 31 30 29
42 47 47 48 47 46 45 47 46 45 44 43 44 43 44 44 44 44 42 40 40 38 36 36 35 32 31 33 34 33 34 33 32 28 30 31 30 30 31 31 30 30 29
45 47 46 44 44 43 45 45 45 43 41 40 42 43 42 42 41 41 40 36 34 33 33 33 33 35 34 33 31 31 31 31 29 29 30 29 28 27 28 28 28 29 28
MSLP
1016.61 1017.23 1017.77 1018.15 1018.52 1019.57 1020.49 1020.84 1021.63 1022.25 1022.72 1023.62 1024.27 1024.21 1024.59 1024.34 1024.24 1024.33 1025.00 1025.08 1025.16 1025.29 1025.19 1025.05 1025.30 1025.37 1025.44 1025.52 1025.26 1024.80 1024.29 1024.00 1023.88 1023.40 1022.45 1021.85 1021.44 1021.62 1021.64 1021.52 1021.36 1021.22 1021.25
1016.31 1017.00 1017.68 1018.37 1019.24 1019.50 1019.88 1020.95 1021.42 1022.00 1022.24 1022.57 1022.82 1022.87 1023.03 1023.45 1023.83 1024.40 1024.94 1025.03 1025.13 1025.19 1025.36 1025.39 1025.36 1025.55 1025.19 1025.19 1025.07 1024.86 1024.41 1023.92 1023.86 1023.94 1023.03 1021.58 1021.26 1020.60 1021.55 1021.88 1021.47 1021.26 1021.32
1015.92 1016.86 1017.47 1018.02 1018.89 1019.41 1019.93 1020.25 1020.70 1021.04 1021.27 1021.57 1022.02 1022.66 1023.45 1024.04 1024.04 1024.29 1024.54 1024.92 1025.26 1025.41 1025.45 1025.44 1025.36 1025.27 1025.11 1024.75 1024.79 1024.64 1024.60 1024.23 1023.96 1023.98 1023.92 1022.63 1021.83 1021.92 1021.97 1021.77 1021.66 1021.63 1021.45
1016.17 1016.69 1017.31 1018.00 1018.49 1018.86 1019.27 1019.45 1020.00 1020.63 1021.30 1021.72 1022.01 1022.49 1022.31 1022.77 1023.24 1023.97 1024.35 1024.72 1025.29 1025.22 1025.09 1025.12 1025.23 1025.12 1024.91 1024.74 1024.55 1024.40 1024.79 1024.67 1024.22 1023.92 1023.71 1023.74 1023.54 1022.79 1021.98 1022.06 1021.85 1021.75 1021.63
1016.21 1016.69 1017.19 1017.74 1018.32 1019.11 1019.56 1019.97 1020.61 1021.17 1021.80 1022.18 1022.22 1022.39 1022.61 1023.19 1023.73 1024.15 1024.44 1024.58 1024.71 1024.97 1024.95 1024.96 1024.95 1024.80 1024.58 1024.43 1024.57 1024.74 1024.60 1024.56 1024.58 1024.40 1023.83 1023.83 1023.73 1023.52 1023.24 1022.47 1021.77 1021.28 1021.47
1016.33 1016.86 1017.42 1018.04 1018.74 1019.50 1020.17 1020.79 1020.99 1021.39 1021.91 1022.14 1022.44 1022.63 1023.02 1023.31 1023.47 1023.77 1023.97 1024.02 1024.24 1024.37 1024.52 1024.76 1024.84 1024.71 1024.55 1024.47 1024.39 1024.41 1024.51 1024.51 1024.51 1024.45 1024.20 1024.00 1023.80 1023.43 1023.24 1023.04 1022.27 1021.28 1020.96
1016.26 1016.77 1017.43 1018.11 1018.93 1019.63 1020.16 1020.55 1020.87 1021.46 1022.02 1022.29 1022.58 1022.93 1023.24 1023.42 1023.57 1023.84 1024.00 1024.35 1024.17 1024.22 1024.28 1024.57 1024.61 1024.44 1024.23 1024.18 1024.23 1024.19 1024.19 1024.14 1024.09 1024.14 1024.10 1023.92 1023.88 1023.80 1023.67 1023.33 1022.31 1021.47 1020.82
1015.97 1016.52 1017.35 1018.05 1018.71 1019.37 1019.93 1020.41 1020.76 1021.49 1022.10 1022.55 1022.97 1023.31 1023.57 1023.66 1023.83 1024.06 1024.30 1024.43 1024.51 1024.52 1024.72 1024.70 1024.58 1024.34 1024.08 1023.80 1023.62 1023.67 1023.62 1023.54 1023.74 1023.93 1023.97 1023.91 1023.71 1023.65 1023.39 1022.99 1022.76 1021.77 1020.80
1015.62 1016.38 1017.34 1018.01 1018.67 1019.37 1020.02 1020.51 1021.01 1021.61 1022.48 1023.04 1023.43 1023.78 1023.85 1023.99 1024.13 1024.44 1024.59 1024.59 1024.75 1024.70 1024.57 1024.54 1024.21 1023.83 1023.51 1023.29 1023.13 1023.24 1023.18 1023.08 1023.17 1023.53 1023.72 1023.55 1023.48 1023.41 1023.28 1023.22 1022.89 1022.60 1021.14
1015.39 1016.33 1017.23 1018.16 1018.81 1019.39 1020.30 1020.78 1021.29 1021.86 1022.70 1023.10 1023.59 1023.80 1024.00 1024.15 1024.35 1024.59 1024.63 1024.72 1024.78 1024.72 1024.55 1024.34 1024.03 1023.66 1023.27 1022.96 1022.93 1023.10 1023.28 1023.02 1023.13 1023.29 1023.36 1023.29 1023.11 1023.18 1023.01 1022.61 1022.46 1022.04 1021.17
1015.32 1016.27 1017.29 1018.33 1019.01 1019.66 1020.23 1020.84 1021.68 1022.41 1022.79 1023.18 1023.55 1023.77 1023.99 1024.14 1024.47 1024.56 1024.68 1024.76 1024.80 1024.66 1024.54 1024.32 1024.03 1023.58 1023.19 1023.18 1023.76 1023.85 1023.57 1023.05 1023.18 1023.34 1023.26 1023.10 1023.00 1022.80 1022.61 1022.28 1021.94 1021.43 1021.01
1015.39 1016.43 1017.53 1018.38 1019.03 1019.64 1020.28 1021.19 1022.01 1022.47 1023.07 1023.19 1023.47 1023.65 1023.85 1024.15 1024.35 1024.52 1024.61 1024.73 1024.74 1024.67 1024.49 1024.26 1023.84 1023.54 1023.59 1023.58 1023.47 1023.51 1023.49 1023.42 1023.24 1023.07 1023.01 1022.84 1022.70 1022.55 1022.31 1021.94 1021.47 1021.19 1021.00
1015.73 1016.59 1017.51 1018.19 1018.88 1019.69 1020.62 1021.45 1022.07 1022.51 1022.59 1022.91 1023.09 1023.41 1023.75 1023.97 1024.19 1024.39 1024.55 1024.65 1024.62 1024.53 1024.27 1024.06 1024.07 1023.94 1023.87 1023.77 1023.73 1023.70 1023.47 1023.42 1023.37 1023.25 1023.07 1022.94 1022.83 1022.52 1022.16 1021.92 1021.48 1021.29 1021.34
1015.64 1016.42 1017.30 1017.99 1018.88 1019.75 1020.62 1021.16 1021.67 1022.25 1022.36 1022.65 1022.84 1023.13 1023.56 1023.88 1024.10 1024.34 1024.47 1024.52 1024.54 1024.36 1024.08 1024.02 1024.14 1024.08 1023.76 1023.72 1023.74 1023.79 1023.63 1023.49 1023.36 1023.32 1023.22 1023.11 1023.02 1022.82 1022.66 1022.41 1021.81 1021.33 1020.98
1015.41 1016.15 1016.86 1017.71 1018.58 1019.36 1020.01 1020.61 1021.40 1021.86 1022.28 1022.56 1022.73 1022.96 1023.48 1023.83 1024.00 1024.21 1024.29 1024.31 1024.30 1024.07 1023.85 1023.96 1024.02 1023.83 1023.87 1024.14 1024.42 1024.10 1023.83 1023.53 1023.37 1023.24 1023.11 1022.95 1023.32 1023.80 1023.64 1023.12 1022.26 1021.88 1021.28
1015.08 1015.91 1016.55 1017.43 1018.17 1019.02 1019.67 1020.57 1021.13 1021.72 1022.20 1022.44 1022.65 1023.02 1023.49 1023.72 1023.86 1024.05 1024.08 1024.03 1023.90 1023.71 1023.76 1023.68 1023.68 1023.75 1023.90 1025.15 1025.19 1025.03 1024.18 1023.57 1023.33 1023.07 1022.93 1022.79 1022.93 1022.67 1023.11 1022.84 1022.61 1022.30 1021.40
1014.77 1015.60 1016.41 1017.33 1018.15 1019.03 1019.80 1020.49 1021.16 1021.78 1022.19 1022.38 1022.73 1023.07 1023.42 1023.62 1023.74 1023.85 1023.74 1023.49 1023.33 1023.24 1023.47 1023.51 1023.54 1023.59 1023.80 1025.07 1025.20 1025.15 1024.34 1023.69 1023.38 1023.19 1022.91 1022.63 1022.46 1022.46 1022.38 1022.26 1021.94 1021.34 1020.80
1014.72 1015.60 1016.50 1017.46 1018.33 1019.31 1019.97 1020.68 1021.18 1021.77 1022.07 1022.44 1022.78 1023.10 1023.30 1023.36 1023.39 1023.44 1023.35 1023.19 1023.05 1022.92 1023.07 1023.39 1023.49 1023.53 1023.92 1025.02 1025.13 1024.99 1023.97 1023.65 1023.40 1023.20 1022.91 1022.56 1022.34 1022.36 1022.76 1022.20 1021.47 1020.77 1019.94
1014.86 1015.78 1016.75 1017.95 1018.85 1019.55 1020.28 1020.74 1021.29 1021.77 1022.27 1022.51 1022.69 1022.93 1023.04 1023.04 1023.01 1022.98 1023.03 1023.04 1022.78 1022.52 1022.79 1022.95 1022.93 1023.29 1023.66 1024.68 1024.90 1024.76 1023.94 1023.46 1023.28 1022.99 1022.65 1022.71 1022.60 1022.64 1022.90 1022.13 1021.25 1020.44 1019.59
1015.30 1016.48 1017.61 1018.50 1019.25 1019.93 1020.62 1020.86 1021.40 1021.95 1022.23 1022.53 1022.76 1022.95 1022.88 1022.79 1022.70 1022.71 1022.80 1022.80 1022.55 1022.37 1022.78 1022.55 1022.80 1023.22 1023.66 1024.30 1024.66 1024.49 1023.93 1023.58 1023.12 1022.70 1022.43 1022.44 1022.88 1023.07 1022.57 1021.99 1021.17 1020.35 1019.59
1016.06 1017.21 1018.23 1018.94 1019.67 1020.36 1020.95 1021.21 1021.49 1021.85 1022.21 1022.48 1022.78 1022.74 1022.55 1022.51 1022.59 1022.65 1022.45 1022.25 1022.11 1022.19 1022.25 1022.68 1022.77 1022.95 1023.27 1023.34 1024.18 1024.30 1024.07 1023.52 1023.12 1022.66 1022.25 1022.21 1022.69 1022.75 1022.39 1022.02 1021.18 1020.63 1020.19
1016.99 1017.84 1018.60 1019.43 1020.47 1021.21 1021.31 1021.34 1021.63 1021.83 1022.18 1022.44 1022.45 1022.28 1022.25 1022.37 1022.37 1022.27 1022.04 1022.00 1021.81 1021.79 1022.12 1022.64 1022.83 1022.50 1022.76 1023.21 1023.50 1023.88 1023.90 1023.78 1023.37 1022.89 1022.46 1022.51 1022.68 1022.51 1022.06 1021.59 1021.23 1020.69 1020.01
1017.73 1018.22 1019.01 1019.67 1020.54 1021.16 1021.49 1021.41 1021.33 1022.11 1022.21 1022.24 1022.02 1021.87 1022.05 1022.14 1022.02 1021.79 1021.54 1021.45 1021.39 1021.53 1021.72 1021.95 1022.05 1022.00 1022.16 1022.40 1022.99 1023.39 1023.55 1023.49 1023.32 1022.94 1022.86 1022.84 1022.60 1022.09 1021.41 1021.08 1020.88 1020.31 1019.62
1018.83 1019.79 1019.93 1020.59 1020.64 1021.10 1021.54 1021.64 1022.03 1022.12 1022.05 1021.91 1021.71 1021.56 1021.58 1021.43 1021.66 1021.51 1021.43 1021.20 1021.29 1021.43 1021.66 1021.77 1021.81 1021.71 1021.93 1021.99 1022.24 1022.45 1022.57 1022.65 1022.70 1022.31 1022.23 1022.25 1022.21 1021.61 1021.22 1020.53 1020.18 1019.99 1019.79
1020.13 1020.39 1020.51 1020.74 1021.12 1021.22 1021.43 1021.77 1022.04 1022.10 1021.89 1021.75 1021.53 1021.34 1021.10 1021.16 1021.00 1020.87 1021.10 1021.10 1021.09 1021.29 1021.36 1021.38 1021.53 1021.67 1021.68 1021.78 1021.94 1022.08 1022.11 1022.15 1022.21 1022.46 1021.99 1021.39 1021.22 1020.88 1020.42 1020.12 1019.95 1019.72 1019.61
1020.63 1020.77 1021.08 1021.35 1021.51 1021.67 1021.88 1021.91 1021.99 1022.13 1022.02 1021.70 1021.32 1021.04 1021.03 1021.16 1021.00 1020.59 1020.41 1020.70 1020.90 1021.09 1021.27 1021.36 1021.42 1021.33 1021.34 1021.46 1021.69 1021.83 1021.95 1022.01 1022.16 1021.95 1021.27 1020.93 1020.84 1020.66 1020.30 1019.99 1019.71 1019.52 1019.45
Wind_Speed
7 7 7 8 10 13 16 17 16 10 7 5 5 5 7 6 5 5 6 6 6 5 5 4 4 4 4 5 5 6 8 8 7 10 9 9 5 7 7 8 10 9 9
9 8 10 12 14 15 14 14 12 10 10 7 8 7 6 4 5 5 5 5 5 5 4 4 3 4 5 5 6 7 7 8 6 8 11 8 9 8 5 10 8 10 10
10 10 10 11 11 13 14 13 15 13 11 11 7 6 5 6 5 5 5 4 3 1 1 3 4 5 5 6 7 7 8 8 8 6 7 10 10 11 9 10 8 12 10
10 11 12 13 15 15 15 15 14 13 10 8 7 9 4 5 2 4 4 3 4 2 4 5 5 6 6 8 8 6 6 7 9 7 7 7 10 10 11 10 9 9 12
13 13 14 15 14 12 10 11 11 10 9 9 7 5 4 4 5 4 3 2 2 4 5 6 8 9 8 8 7 7 7 6 7 9 8 8 8 9 9 10 11 10 9
13 14 13 13 12 10 9 9 11 10 9 7 7 6 6 5 3 1 3 4 5 5 7 7 8 9 9 9 9 8 8 10 9 8 8 7 8 9 9 10 13 14 11
14 15 15 13 11 11 11 10 10 9 8 8 8 7 6 3 1 3 4 7 7 7 9 10 10 9 11 11 11 10 10 11 9 10 8 7 8 8 8 9 11 13 13
14 16 15 12 12 11 11 10 9 9 8 7 7 5 3 2 2 4 5 6 6 7 9 9 10 12 12 11 11 9 9 10 8 11 9 8 7 8 8 9 10 13 14
15 14 13 11 11 9 9 8 8 8 8 7 5 3 2 3 4 4 4 4 6 7 10 12 14 14 13 12 12 10 11 10 9 10 9 7 7 7 8 9 10 10 15
14 13 12 10 9 9 9 8 7 9 8 6 3 1 1 3 3 3 4 6 8 11 13 15 15 14 13 12 10 10 10 11 7 7 9 9 8 8 9 10 10 12 14
13 12 11 10 10 9 9 9 8 7 6 4 4 3 3 3 1 3 5 7 9 12 13 14 14 13 11 8 7 8 12 9 8 9 9 10 11 10 11 11 12 13 13
13 12 12 12 12 10 9 10 7 7 5 5 6 5 2 2 2 3 6 8 11 11 12 11 11 10 8 9 8 8 7 7 9 9 10 12 11 14 14 12 14 13 15
13 13 14 13 12 10 10 9 8 8 8 7 5 3 4 3 3 5 7 9 10 10 9 10 8 8 8 7 5 6 6 7 7 10 12 13 14 14 12 13 13 11 11
15 14 14 13 12 12 11 11 9 9 7 5 4 3 3 3 3 5 8 9 9 9 8 7 7 6 6 5 5 5 6 8 9 10 11 12 12 13 14 13 14 12 12
16 15 14 13 13 13 11 8 8 8 5 4 5 4 4 4 4 6 8 8 8 8 7 5 5 5 3 3 6 7 8 10 10 10 10 11 11 13 12 10 13 13 11
16 16 15 13 13 11 9 9 8 6 4 5 5 4 4 5 6 7 8 8 8 8 7 7 6 6 2 5 4 7 10 10 10 10 11 11 10 9 14 14 15 15 14
16 16 15 13 11 10 9 9 7 5 5 4 4 5 4 6 7 8 9 9 10 8 7 8 7 6 4 3 2 5 10 9 9 10 10 10 8 9 11 14 17 19 17
16 14 12 11 10 10 9 7 6 4 3 4 5 4 6 8 8 8 9 9 8 9 7 7 7 7 2 1 2 6 9 8 9 10 10 11 11 10 12 14 15 15 14
13 11 10 10 11 10 8 6 4 3 4 5 5 6 7 9 8 9 8 9 8 9 5 8 7 7 5 5 3 7 8 8 10 9 10 10 12 13 17 15 14 14 13
10 10 11 11 10 8 5 5 5 5 5 5 6 7 8 9 9 8 8 8 8 8 6 7 6 1 7 7 3 6 6 7 8 9 9 5 7 14 17 13 12 13 13
12 14 13 10 9 6 5 5 5 6 4 5 7 8 8 8 8 8 9 8 8 7 6 5 6 6 6 5 6 4 6 6 8 8 8 7 12 16 17 15 11 12 15
15 13 12 9 6 4 4 5 6 3 5 6 8 8 7 6 6 10 9 9 8 7 6 4 6 7 6 7 7 7 7 8 7 9 8 9 15 16 16 13 14 15 13
12 10 10 9 7 4 4 5 3 4 6 8 9 8 7 6 8 9 10 8 7 6 6 6 7 7 5 5 10 8 8 9 6 7 10 14 14 14 11 7 11 11 7
10 7 7 6 6 5 3 3 5 6 7 8 8 7 8 7 10 7 7 7 6 6 5 6 7 7 6 5 5 4 4 5 7 4 8 8 9 10 8 7 5 6 6
5 4 5 4 2 0 2 5 6 6 7 8 7 7 6 8 9 8 7 7 7 6 6 7 6 6 6 5 3 4 5 5 4 6 7 6 6 6 5 5 5 5 6
4 4 0 1 2 3 6 6 6 6 7 7 6 5 6 8 8 8 7 10 10 6 10 12 9 7 10 10 8 10 10 7 5 6 7 6 5 6 6 5 5 5 6
Wind_Direction
160 153 137 144 146 141 151 157 151 166 144 123 174 166 174 142 143 129 132 123 100 82 48 46 21 350 3 348 339 333 332 325 336 306 325 306 267 266 327 329 309 322 318
169 150 151 150 158 162 161 154 163 172 171 171 177 177 144 138 136 139 129 117 88 60 52 22 4 352 336 335 332 328 325 322 340 320 308 316 302 273 332 313 316 316 321
161 154 151 152 152 158 166 171 180 183 165 157 137 124 130 155 166 154 154 114 112 128 29 358 348 328 308 321 321 318 313 319 317 329 310 314 314 325 294 316 308 319 327
155 149 145 149 157 160 169 177 167 159 153 164 155 172 210 188 143 170 140 167 204 235 335 324 306 304 306 306 304 308 313 310 311 310 307 297 301 302 304 314 309 300 305
152 155 155 149 151 146 155 148 152 159 158 169 172 180 126 113 142 154 185 266 290 286 302 299 298 295 297 300 296 290 281 288 308 303 310 303 297 290 293 302 298 298 304
161 160 150 144 137 138 138 149 160 150 154 153 143 124 131 144 173 185 298 314 318 313 304 320 306 296 296 287 275 265 264 275 287 283 284 288 297 301 309 302 307 300 306
166 164 163 167 159 158 159 158 156 142 137 126 125 129 130 138 250 336 338 320 315 309 310 322 311 304 296 279 270 265 270 291 291 286 292 301 296 304 299 286 295 300 302
174 174 169 168 166 161 164 165 153 133 125 117 116 108 85 55 342 344 330 317 320 323 331 317 312 306 300 287 269 270 276 287 303 295 280 290 294 291 296 301 305 299 299
180 177 173 177 166 164 149 141 138 115 106 100 95 102 78 16 1 354 340 337 323 325 320 313 310 308 302 289 280 276 287 298 297 291 287 287 294 300 304 302 295 307 297
181 181 180 175 172 154 138 135 117 120 119 118 147 191 59 71 57 343 339 334 332 323 322 317 313 308 302 293 291 296 295 293 295 278 285 290 299 304 292 288 287 286 289
188 185 181 174 162 153 145 126 122 132 137 151 172 154 131 96 257 321 339 340 329 326 320 318 314 310 306 308 319 298 286 300 295 290 291 294 299 300 299 298 293 290 290
191 181 177 169 164 161 142 129 140 139 158 170 169 161 158 228 286 328 333 338 325 323 319 314 311 320 326 306 312 307 305 298 295 302 301 300 303 300 296 291 293 293 296
183 177 176 176 168 152 147 147 163 170 172 181 178 190 224 259 294 327 331 325 321 316 312 316 330 316 310 313 311 300 312 312 309 305 307 307 307 301 303 303 298 306 299
179 179 180 174 164 158 158 172 171 177 174 181 225 254 260 266 297 316 318 318 316 309 313 325 319 315 308 312 327 326 315 313 313 312 308 308 306 309 318 307 302 298 299
185 183 183 173 167 171 174 170 171 169 175 221 266 285 246 249 288 306 309 310 308 304 307 310 291 303 292 18 344 330 315 313 314 310 309 308 331 311 299 307 309 308 298
191 187 187 178 178 174 172 172 167 172 202 246 267 259 232 265 294 303 302 300 295 294 295 288 295 258 220 77 18 329 316 313 312 314 314 313 309 309 308 290 293 290 288
193 190 188 183 175 178 168 168 172 171 219 263 254 222 244 282 294 298 299 296 300 295 282 288 284 244 229 95 360 330 306 316 318 317 315 316 310 308 321 310 298 290 285
195 191 183 178 173 155 163 153 171 202 235 245 227 231 259 281 286 291 298 306 301 281 278 276 264 247 171 143 310 313 298 313 317 317 315 314 323 334 330 313 308 304 304
192 188 172 166 154 158 156 167 187 212 212 227 245 263 281 283 283 285 307 299 300 289 270 262 247 244 250 158 282 306 315 315 316 315 316 332 320 346 323 312 311 310 305
172 158 147 148 153 146 150 177 211 219 239 241 273 284 285 283 279 285 296 301 294 290 259 265 253 264 273 163 248 301 308 317 311 313 321 334 344 324 322 319 314 307 322
156 138 141 144 137 123 174 215 219 239 241 262 276 284 293 287 279 284 287 293 294 295 278 262 250 264 275 261 201 265 294 311 318 314 319 329 342 323 321 319 303 324 319
141 139 131 121 100 199 214 250 245 238 262 278 281 284 293 282 269 280 291 293 285 274 263 226 265 274 262 231 229 244 271 311 299 307 319 323 330 316 316 306 335 318 302
134 134 128 139 167 173 211 239 279 270 283 282 285 283 276 272 278 288 294 290 280 270 271 268 277 282 257 259 195 237 261 269 289 309 317 306 307 307 298 343 315 309 337
124 114 143 191 164 172 206 276 274 270 275 282 285 277 271 292 296 292 282 276 276 276 273 278 285 297 288 269 263 248 254 239 258 302 317 309 282 279 282 294 330 337 344
95 175 193 196 216 137 253 258 272 280 282 287 286 282 281 287 293 290 286 276 269 266 271 262 270 281 268 273 286 277 285 295 337 316 296 300 315 311 321 325 336 333 344
191 197 180 267 266 268 274 281 294 287 283 284 285 297 300 291 293 294 292 221 232 239 232 249 257 266 262 265 249 233 250 260 266 287 293 305 306 306 314 326 332 338 340